#timestamp,LO_Frequency,Hit,StdDev 
1579654815.7,286047002.1,N
1579654835.5,286047000.2,N
1579654855.3,286046998.6,N
1579654875.2,286046998.7,N
1579654895.0,286047000.4,N
1579654895.9,286047000.4,N
1579654915.8,286046998.4,N
1579654935.6,286046999.3,N
1579654955.4,286046999.2,N
1579654975.3,286046999.4,N
1579654995.1,286046999.9,N
1579655015.8,286046998.2,N
1579655035.7,286046997.1,N
1579655055.5,286046997.1,N
1579655075.4,286046997.2,N
1579655095.2,286046999.0,N
1579655115.0,286046998.4,N
1579655115.9,286046998.4,N
1579655135.8,286046999.0,N
1579655155.6,286047000.5,N
1579655175.4,286047000.0,N
1579655195.3,286046998.7,N
1579655215.1,286046999.4,N
1579655235.9,286047000.7,N
1579655255.7,286047002.4,N
1579655275.5,286047004.0,Y
1579655295.4,286046999.7,P
1579655315.2,286047000.6,P
1579655335.1,286047002.7,P
1579655336.0,286047002.7,N
1579655355.8,286046999.7,N
1579655375.6,286047002.6,N
1579655395.5,286047001.0,N
1579655415.3,286047002.8,N
1579655435.1,286047000.8,N
1579655455.9,286047002.2,N
1579655475.7,286047000.7,N
1579655495.6,286046999.1,N
1579655515.4,286046998.8,N
1579655535.2,286046998.8,N
1579655555.1,286046996.8,N
1579655556.0,286046996.8,N
1579655575.8,286046998.2,N
1579655595.7,286046999.7,N
1579655615.5,286047000.3,N
1579655635.3,286046998.1,N
1579655655.2,286047011.9,Y
1579655675.0,286047000.8,P
1579655675.9,286047000.8,N
1579655695.7,286047002.6,P
1579655715.6,286046999.8,N
1579655735.4,286047002.7,N
1579655755.3,286047001.1,N
1579655775.1,286046996.5,Y
1579655776.0,286046996.5,P
1579655795.8,286046999.6,N
1579655815.7,286046997.3,N
1579655835.5,286046996.5,N
1579655855.3,286046999.4,N
1579655875.2,286046999.3,N
1579655895.0,286047000.0,N
1579655895.9,286047000.0,N
1579655915.8,286047003.2,N
1579655935.6,286047003.6,N
1579655955.4,286047003.9,N
1579655975.3,286047003.7,N
1579655995.1,286047001.7,N
1579656015.9,286047000.6,N
1579656035.7,286047000.2,N
1579656055.5,286046999.9,N
1579656075.4,286046999.3,N
1579656095.2,286047001.2,N
1579656115.0,286047002.4,N
1579656115.9,286047002.4,N
1579656135.8,286047002.1,N
1579656155.6,286046998.4,N
1579656175.5,286047000.3,N
1579656195.3,286047002.2,N
1579656215.1,286047002.0,N
1579656235.9,286047000.7,N
1579656255.7,286046996.6,N
1579656275.5,286046998.5,N
1579656295.4,286046997.1,N
1579656315.2,286046996.9,N
1579656335.1,286046999.3,N
1579656336.0,286046999.3,N
1579656355.8,286047000.4,N
1579656375.6,286046999.3,N
1579656395.5,286046998.8,N
1579656415.3,286046998.8,N
1579656435.1,286047001.2,N
1579656455.9,286046999.3,N
1579656475.7,286046998.5,N
1579656495.6,286046997.0,N
1579656515.4,286046997.3,N
1579656535.2,286046997.8,N
1579656555.1,286046995.4,N
1579656556.0,286046995.4,N
1579656575.8,286046995.7,N
1579656595.7,286046995.1,N
1579656615.5,286046995.8,N
1579656635.3,286046994.9,N
1579656655.2,286046999.5,N
1579656675.9,286046997.3,N
1579656695.7,286046995.2,N
1579656715.6,286046999.5,N
1579656735.4,286046999.5,N
1579656755.2,286046997.1,N
1579656775.1,286046995.6,N
1579656776.0,286046995.6,N
1579656795.8,286046995.2,N
1579656815.7,286046995.2,N
1579656835.5,286046996.7,N
1579656855.3,286046995.4,N
1579656875.2,286046996.6,N
1579656895.0,286047000.7,N
1579656895.9,286047000.7,N
1579656915.8,286046998.4,N
1579656935.6,286046997.4,N
1579656955.4,286046999.1,N
1579656975.3,286046998.8,N
1579656995.1,286047001.0,N
1579657015.8,286047000.5,N
1579657035.7,286047000.5,N
1579657055.5,286047000.7,N
1579657075.4,286046998.2,N
1579657095.2,286047000.3,N
1579657115.0,286046998.2,N
1579657115.9,286046998.2,N
1579657135.8,286046997.0,N
1579657155.6,286046997.6,N
1579657175.4,286046999.5,N
1579657195.3,286046997.3,N
1579657215.1,286046996.6,N
1579657235.9,286046998.7,N
1579657255.7,286046998.8,N
1579657275.5,286046997.9,N
1579657295.4,286046995.6,N
1579657315.2,286046995.7,N
1579657335.0,286046997.3,N
1579657335.9,286046997.3,N
1579657355.8,286046998.1,N
1579657375.6,286047000.9,N
1579657395.5,286047000.8,N
1579657415.3,286047000.4,N
1579657435.1,286046998.8,N
1579657455.9,286046998.2,N
1579657475.7,286046999.5,N
1579657495.5,286046998.9,N
1579657515.4,286046999.6,N
1579657535.2,286046996.6,N
1579657555.1,286046997.6,N
1579657556.0,286046997.6,N
1579657575.8,286046996.5,N
1579657595.6,286046999.1,N
1579657615.5,286046998.6,N
1579657635.3,286046999.3,N
1579657655.1,286046997.0,N
1579657675.9,286046997.2,N
1579657695.7,286046997.0,N
1579657715.6,286046997.1,N
1579657735.4,286046995.7,Y
1579657755.2,286046997.1,P
1579657775.1,286046998.7,N
1579657776.0,286046998.7,N
1579657795.8,286046997.1,Y
1579657815.7,286046998.7,P
1579657835.5,286047001.0,P
1579657855.3,286047001.2,N
1579657875.2,286047000.6,N
1579657895.0,286047002.6,N
1579657895.9,286047002.6,N
1579657915.7,286047001.9,N
1579657935.6,286047000.1,N
1579657955.4,286047000.0,N
1579657975.3,286047002.4,N
1579657995.1,286047002.6,N
1579657996.0,286047002.6,N
1579658015.8,286047001.5,N
1579658035.7,286047001.3,N
1579658055.5,286047002.2,N
1579658075.3,286047003.8,N
1579658095.2,286047003.4,N
1579658115.0,286047003.2,N
1579658115.9,286047003.2,N
1579658135.8,286047003.8,N
1579658155.6,286047004.1,N
1579658175.4,286047004.4,N
1579658195.3,286047002.4,N
1579658215.1,286047001.7,N
1579658235.8,286047002.4,N
1579658255.7,286047004.3,N
1579658275.5,286047001.8,N
1579658295.3,286047001.8,N
1579658315.2,286047000.0,N
1579658335.0,286047001.5,N
1579658335.9,286047001.5,N
1579658355.8,286047004.0,Y
1579658375.6,286047000.3,P
1579658395.4,286047002.7,N
